EW2270 Weather Reports


time (UTC)temp
C
wind
direction
speed
KPH
gust
KPH
rain 1hr
cm
rain 24hr
cm
rain mn
cm
humidity
%
barometer
mb
20260903043041 13 113 1.6 8.0 0.15 0.20 0.20 84 1007.9
20260903041641 13 127 0.0 4.8 0.15 0.15 0.15 84 1007.9
20260903040039 13 140 1.6 9.7 0.10 0.10 0.10 81 1007.9
20260903034546 14 141 4.8 8.0 0.08 0.08 0.08 80 1007.9
20260903033041 15 170 6.4 11.3 0.03 0.03 0.03 76 1007.9
20260903031539 15 158 4.8 8.0 0.00 0.00 0.00 74 1007.7
20260903030034 15 208 4.8 11.3 0.00 0.00 0.00 72 1007.6
20260903024533 16 210 6.4 14.5 0.00 0.00 0.00 66 1007.3
20260903023036 16 188 11.3 20.9 0.00 0.00 0.00 61 1007.2
20260903021531 17 196 11.3 22.5 0.00 0.00 0.00 58 1007.2
20260903020031 17 202 14.5 25.7 0.00 0.00 0.00 56 1007.2
20260903014544 18 193 20.9 29.0 0.00 0.00 0.00 52 1007.1
20260903013034 17 198 19.3 29.0 0.00 0.00 0.00 55 1007.1
20260903011528 17 195 24.1 35.4 0.00 0.00 0.00 55 1007.1
20260903010028 18 202 22.5 33.8 0.00 0.00 0.00 52 1006.9
20260903004540 18 194 20.9 32.2 0.00 0.00 0.00 52 1006.9
20260903003031 18 233 16.1 30.6 0.00 0.00 0.00 53 1006.8
20260903001526 18 196 17.7 32.2 0.00 0.00 0.00 53 1006.5
20260903000024 19 243 16.1 29.0 0.00 0.00 0.00 55 1006.4
20260902234523 20 250 17.7 43.5 0.00 0.00 0.00 44 1006.2
20260902233024 21 248 20.9 33.8 0.00 0.00 0.00 42 1006.2
20260902231521 21 259 24.1 41.8 0.00 0.00 0.00 39 1006.0
20260902230021 21 241 24.1 49.9 0.00 0.00 0.00 39 1005.5
20260902224620 22 263 35.4 48.3 0.00 0.00 0.00 39 1005.2
20260902223020 22 251 35.4 49.9 0.00 0.00 0.00 35 1005.1
20260902221523 23 230 25.7 40.2 0.00 0.00 0.00 30 1005.1
20260902220018 24 221 22.5 35.4 0.00 0.00 0.00 28 1004.4
20260902214525 24 231 14.5 32.2 0.00 0.00 0.00 28 1004.2
20260902213024 25 110 9.7 20.9 0.00 0.00 0.00 29 1003.9
20260902211509 23 100 6.4 14.5 0.00 0.00 0.00 35 1004.1
20260902210015 23 146 6.4 19.3 0.00 0.00 0.00 35 1004.3
20260902204504 23 6 6.4 14.5 0.00 0.00 0.00 37 1004.3
20260902203003 23 27 4.8 17.7 0.00 0.00 0.00 38 1004.5
20260902201603 22 49 14.5 20.9 0.00 0.00 0.00 39 1004.7
20260902200059 22 44 6.4 14.5 0.00 0.00 0.00 40 1005.0
20260902194555 21 23 4.8 9.7 0.00 0.00 0.00 41 1005.4
20260902193056 21 356 4.8 11.3 0.00 0.00 0.00 41 1005.5
20260902191555 21 340 4.8 8.0 0.00 0.00 0.00 41 1005.7
20260902190051 21 318 0.0 12.9 0.00 0.00 0.00 42 1005.9
20260902184557 22 43 0.0 6.4 0.00 0.00 0.00 42 1006.1
20260902183046 21 111 0.0 9.7 0.00 0.00 0.00 42 1006.3
20260902181547 21 284 4.8 11.3 0.00 0.00 0.00 43 1006.5
20260902180040 20 291 1.6 9.7 0.00 0.00 0.00 44 1006.6
20260902174538 20 279 0.0 8.0 0.00 0.00 0.00 45 1006.9
20260902173036 20 187 3.2 8.0 0.00 0.00 0.00 46 1007.0
20260902171534 20 357 4.8 8.0 0.00 0.00 0.00 47 1007.2
20260902170031 18 30 4.8 9.7 0.00 0.00 0.00 49 1007.3
20260902164530 18 248 8.0 11.3 0.00 0.00 0.00 49 1007.3
20260902163028 18 222 3.2 9.7 0.00 0.00 0.00 51 1007.4
20260902161526 18 302 1.6 11.3 0.00 0.00 0.00 51 1007.4
20260902160024 18 229 4.8 9.7 0.00 0.00 0.00 51 1007.5
20260902154526 17 269 9.7 16.1 0.00 0.00 0.00 52 1007.8
20260902153023 17 210 4.8 11.3 0.00 0.00 0.00 54 1008.0
20260902151518 15 156 1.6 3.2 0.00 0.00 0.00 62 1008.2
20260902150018 13 157 0.0 0.0 0.00 0.00 0.00 66 1008.3
20260902144520 12 157 0.0 3.2 0.00 0.00 0.00 67 1008.5
20260902143017 12 186 6.4 9.7 0.00 0.00 0.00 69 1008.5
20260902141516 12 148 3.2 6.4 0.00 0.00 0.00 68 1008.4
20260902140013 12 141 3.2 4.8 0.00 0.00 0.00 68 1008.5
20260902134513 12 193 0.0 6.4 0.00 0.00 0.00 68 1008.5
20260902133012 13 186 3.2 4.8 0.00 0.00 0.00 66 1008.5
20260902131511 13 169 4.8 8.0 0.00 0.00 0.00 67 1008.5
20260902130010 12 165 4.8 6.4 0.00 0.00 0.00 69 1008.2
20260902124509 12 233 1.6 4.8 0.00 0.00 0.00 68 1008.2
20260902123009 12 238 1.6 8.0 0.00 0.00 0.00 68 1008.2
20260902121506 12 203 6.4 9.7 0.00 0.00 0.00 69 1008.1
20260902120007 13 140 3.2 4.8 0.00 0.00 0.00 67 1007.7
20260902114501 13 158 0.0 3.2 0.00 0.00 0.00 66 1007.6
20260902113004 14 158 0.0 4.8 0.00 0.00 0.00 65 1007.7
20260902111606 14 158 1.6 4.8 0.00 0.00 0.00 66 1008.1
20260902110059 14 158 0.0 3.2 0.00 0.00 0.00 66 1008.4
20260902104558 15 153 3.2 8.0 0.00 0.00 0.00 66 1008.7
20260902103056 14 159 6.4 11.3 0.00 0.00 0.00 66 1008.5
20260902101555 13 146 4.8 8.0 0.00 0.00 0.00 67 1008.2
20260902100104 13 149 8.0 9.7 0.00 0.00 0.00 67 1008.1
20260902094551 13 153 1.6 6.4 0.00 0.00 0.00 66 1007.9
20260902093048 14 127 3.2 9.7 0.00 0.00 0.00 64 1008.0
20260902091550 15 176 0.0 9.7 0.00 0.00 0.00 62 1008.0
20260902090043 16 210 3.2 14.5 0.00 0.00 0.00 61 1008.3
20260902084539 16 236 6.4 12.9 0.00 0.00 0.00 60 1008.4
20260902083038 16 207 4.8 19.3 0.00 0.00 0.00 59 1007.9
20260902081538 16 203 11.3 20.9 0.00 0.00 0.00 59 1008.4
20260902080035 16 199 6.4 19.3 0.00 0.00 0.00 58 1008.3
20260902074538 16 202 9.7 17.7 0.00 0.00 0.00 57 1008.4
20260902073032 16 233 11.3 25.7 0.00 0.00 0.00 57 1008.0
20260902071526 17 203 11.3 25.7 0.00 0.00 0.00 56 1008.1
20260902070023 17 221 12.9 24.1 0.00 0.00 0.00 55 1007.9
20260902064522 17 221 8.0 19.3 0.00 0.00 0.00 55 1007.7
20260902063033 17 195 11.3 24.1 0.00 0.00 0.00 54 1007.4
20260902061523 17 203 8.0 25.7 0.00 0.00 0.00 53 1007.4
20260902060018 17 200 8.0 12.9 0.00 0.00 0.00 53 1007.4
20260902054524 17 207 3.2 16.1 0.00 0.00 0.00 50 1007.4
20260902053016 18 232 14.5 27.4 0.00 0.00 0.00 48 1007.1
20260902051515 18 229 11.3 22.5 0.00 0.00 0.00 48 1007.1
20260902050043 19 210 14.5 27.4 0.00 0.00 0.00 45 1006.9
20260902044513 20 221 9.7 22.5 0.00 0.00 0.00 44 1006.7